HAISHAO-1 (62190 NORAD) Tracking and Keplerian Element Data

This shows tracking and keplerian element data for the satellite.

Feedback or suggestion? Click here.




ElementValue
Catalog62190
NameHAISHAO-1
Epoch Orbit954
Epoch Day35.24886292
Epoch Year2025
RAAN103.1518
Inclination42.9908
Eccentricity0.0098432
Argument of Perigee111.1896
Mean Anonmoly249.9515
Mean Motion15.51765312
Decay Rate0.0016412
L11 62190U 24228A 25035.24886292 .00164120 00000+0 21439-2 0 9996
L22 62190 42.9908 103.1518 0098432 111.1896 249.9515 15.51765312 9543



Live tracking and technical data element details for HAISHAO-1 (NORAD 62190). HAISHAO-1 can be tracked NOW for your location showing map with azimuth and elevation plus other details from your city location.







IsCatalogInMostPopularTable: catalog: 62190, numindb: 19
Update: records affected: 1



GetName: 62190 HAISHAO-1

Hit Count: updated at: Sat, 24 May 2025 17:18:52 GMT